[[{"header":{"parameterUnit":"m.s-1","parameterCategory":1,"la1":30.2991,"la2":30.254,"lo1":-89.0895,"lo2":-89.0444,"dy":0.0017,"dx":0.0017,"nx":28,"ny":28,"refTime":"2025-09-01T03:00:00:Z","depth":0,"parameterNumber":2,"parameterNumberName":"U-component_of_WINDS"},"data":[0,0,0,0,0,0,0,0,0,0,0,0,0,0,0,0,0,0,0,0,0,0,0,0,0,0,0,0,0,0,0,0,0,0,0,0,0,0,0,0,0,0,0,0,0,0,0,0,0,0,0,0,0,0,0,0,0,0,-2.6568,-2.6567,0,-2.6509,-2.6509,-2.6508,-2.6449,-2.6448,-2.6447,-2.6447,-2.6387,-2.6386,-2.6386,0,0,0,0,0,0,0,0,0,0,0,0,0,-2.6632,-2.6631,-2.6568,-2.6567,-2.6567,-2.6509,-2.6509,-2.6508,-2.6449,-2.6448,-2.6447,-2.6446,-2.6388,-2.6387,-2.6386,0,0,0,0,0,0,0,0,0,0,0,0,0,-2.6592,-2.663,-2.6568,-2.653,-2.6526,-2.6509,-2.6508,-2.6507,-2.6449,-2.6448,-2.6447,-2.6446,-2.6388,-2.6387,-2.6385,-2.6401,0,0,-2.6382,-2.6381,0,0,0,0,0,0,0,0,-2.6594,-2.6589,-2.6537,-2.6533,-2.6528,-2.6485,-2.6509,-2.6472,-2.645,-2.6479,-2.6447,-2.6445,-2.6421,-2.6417,-2.6408,-2.6399,-2.6396,-2.6381,-2.6381,-2.638,-2.638,0,0,0,0,0,0,0,-2.6597,-2.6592,-2.6545,-2.6536,-2.6531,-2.6517,-2.651,-2.6502,-2.6457,-2.6476,-2.6471,-2.6465,-2.6418,-2.641,-2.6407,-2.6395,-2.6381,-2.638,-2.638,-2.6379,-2.6399,-2.64,0,0,0,0,0,0,-2.6605,-2.6594,-2.6547,-2.6543,-2.6559,-2.6517,-2.6509,-2.65,-2.6457,-2.6449,-2.6466,-2.6463,-2.6413,-2.6408,-2.6404,-2.6423,-2.638,-2.6379,-2.6378,-2.6398,-2.6399,-2.6401,0,0,0,0,0,0,-2.6607,-2.6601,-2.6549,-2.6567,-2.656,-2.6517,-2.6508,-2.65,-2.6491,-2.645,-2.6442,-2.6466,-2.6411,-2.6406,-2.6403,-2.642,-2.6378,-2.6377,-2.6396,-2.6398,-2.64,-2.6458,0,0,0,0,0,0,-2.6609,-2.6602,-2.6607,-2.6568,-2.6559,-2.6548,-2.6509,-2.6499,-2.6489,-2.6484,-2.6447,-2.644,-2.641,-2.6405,-2.6402,-2.6417,-2.6376,-2.6395,-2.6397,-2.6399,-2.6455,-2.6462,-2.6468,0,0,0,0,0,-2.6611,-2.6625,-2.6608,-2.6602,-2.6564,-2.6549,-2.6544,-2.6509,-2.649,-2.6496,-2.647,-2.6441,-2.6418,-2.6406,-2.6401,-2.6416,-2.6393,-2.6396,-2.6399,-2.6452,-2.6461,-2.6468,0,0,0,0,0,0,-2.6667,-2.662,-2.6599,-2.6601,-2.658,-2.6539,-2.6545,-2.6519,-2.6503,-2.6499,-2.6457,-2.6449,-2.6452,-2.6433,-2.642,-2.6431,-2.6402,-2.6404,-2.6444,-2.6452,-2.6458,-2.6464,-2.6375,0,0,0,0,0,-2.668,-2.6672,-2.663,-2.6636,-2.6626,-2.6588,-2.658,-2.6555,-2.6531,-2.6522,-2.6496,-2.6474,-2.6463,-2.6456,-2.6442,-2.6451,-2.6444,-2.646,-2.6467,-2.6472,-2.6475,-2.6482,-2.649,-2.641,-2.641,-2.641,0,0,-2.6706,-2.6679,-2.6676,-2.6647,-2.6627,-2.6621,-2.658,-2.6574,-2.657,-2.6521,-2.6518,-2.6498,-2.6471,-2.6476,-2.6476,-2.646,-2.6496,-2.6476,-2.6481,-2.6481,-2.6486,-2.6494,-2.65,-2.6412,-2.6412,-2.6412,0,0,-2.675,-2.6728,-2.6732,-2.6713,-2.6685,-2.6659,-2.6661,-2.6624,-2.661,-2.6605,-2.657,-2.6564,-2.6543,-2.6527,-2.6516,-2.6557,-2.6531,-2.6554,-2.659,-2.6597,-2.6603,-2.6609,-2.6626,-2.6633,-2.6556,-2.6557,-2.6557,0,-2.6786,-2.6775,-2.6737,-2.6734,-2.6723,-2.6679,-2.6684,-2.6668,-2.6637,-2.6631,-2.6614,-2.659,-2.6568,-2.657,-2.658,-2.6572,-2.6573,-2.6559,-2.6605,-2.661,-2.6615,-2.6631,-2.6637,-2.656,-2.6559,-2.6559,-2.6559,0,-2.6822,-2.6814,-2.6821,-2.6793,-2.6783,-2.6784,-2.6747,-2.6741,-2.6718,-2.6695,-2.6693,-2.6666,-2.6648,-2.6646,-2.6623,-2.6645,-2.6637,-2.6613,-2.6583,-2.6626,-2.6641,-2.6647,-2.6564,-2.6563,-2.6562,-2.6561,0,0,-2.69,-2.6852,-2.6856,-2.6844,-2.681,-2.6804,-2.6804,-2.6786,-2.6784,-2.6764,-2.6764,-2.6749,-2.6728,-2.6716,-2.669,-2.6696,-2.6734,-2.6671,-2.667,-2.6687,-2.6761,-2.6781,-2.6789,-2.6716,-2.6717,-2.6718,-2.6764,0,-2.6941,-2.6938,-2.6905,-2.6912,-2.6906,-2.6865,-2.6866,-2.6846,-2.6825,-2.6818,-2.6794,-2.6786,-2.6756,-2.6749,-2.6753,-2.6729,-2.6749,-2.6725,-2.6718,-2.6719,-2.6729,-2.6796,-2.6817,-2.6862,-2.677,-2.677,-2.6771,0,-2.6987,-2.6972,-2.6979,-2.6948,-2.6944,-2.6945,-2.6928,-2.6921,-2.6899,-2.6883,-2.6871,-2.6842,-2.6841,-2.6812,-2.6812,-2.6796,-2.6792,-2.678,-2.6781,-2.6781,-2.6749,-2.6801,-2.6875,-2.6883,-2.6779,-2.6779,-2.6778,0,-2.7048,-2.7028,-2.7031,-2.7021,-2.6984,-2.6986,-2.6971,-2.6947,-2.694,-2.6925,-2.692,-2.6905,-2.6898,-2.6888,-2.6857,-2.6838,-2.6862,-2.6829,-2.6851,-2.6852,-2.6859,-2.686,-2.6937,-2.6852,-2.6852,-2.6852,-2.6852,0,-2.7098,-2.7105,-2.7058,-2.7059,-2.7066,-2.7029,-2.7037,-2.7018,-2.6997,-2.6996,-2.6959,-2.6958,-2.6916,-2.6912,-2.6887,-2.6893,-2.6889,-2.6878,-2.6872,-2.6883,-2.6885,-2.6881,-2.6878,-2.6854,-2.6853,-2.6853,-2.6853,0,-2.7167,-2.7135,-2.7136,-2.7101,-2.7093,-2.71,-2.7071,-2.7072,-2.7049,-2.7048,-2.7045,-2.701,-2.7002,-2.697,-2.6955,-2.6939,-2.6954,-2.694,-2.6962,-2.6958,-2.6983,-2.6983,-2.7063,-2.7073,-2.6979,-2.698,-2.6981,0,-2.7202,-2.7207,-2.7173,-2.717,-2.7157,-2.7151,-2.7144,-2.7107,-2.7102,-2.7078,-2.7083,-2.7073,-2.7063,-2.7054,-2.7027,-2.7016,-2.7003,-2.7032,-2.7001,-2.7013,-2.7008,-2.7009,-2.7011,-2.704,-2.7041,-2.7042,-2.7043,0,-2.727,-2.7255,-2.7246,-2.7232,-2.7225,-2.7213,-2.7198,-2.7197,-2.7157,-2.7153,-2.7145,-2.7138,-2.7123,-2.7115,-2.71,-2.7085,-2.7059,-2.7052,-2.7057,-2.707,-2.7084,-2.708,-2.6983,-2.7051,-2.705,-2.705,-2.7049,-2.7049,-2.7325,-2.7328,-2.7306,-2.7298,-2.7284,-2.7272,-2.7272,-2.725,-2.7243,-2.7229,-2.7207,-2.7204,-2.7183,-2.7161,-2.7148,-2.7146,-2.713,-2.7137,-2.7139,-2.7142,-2.7149,-2.7082,-2.7142,-2.7142,-2.7142,-2.7142,-2.7141,0,-2.7393,-2.7377,-2.737,-2.7352,-2.7347,-2.7321,-2.7304,-2.7302,-2.7299,-2.7282,-2.7274,-2.7267,-2.7259,-2.7233,-2.7222,-2.7226,-2.7214,-2.7225,-2.7226,-2.7223,-2.7161,-2.716,-2.7235,-2.7235,-2.7235,-2.7235,-2.7235,-2.7235,-2.7428,-2.7434,-2.7416,-2.7415,-2.7399,-2.7395,-2.7388,-2.7378,-2.7365,-2.7359,-2.7352,-2.7335,-2.7315,-2.7304,-2.7296,-2.7289,-2.7288,-2.7304,-2.7293,-2.7236,-2.7227,-2.7219,-2.7217,-2.7303,-2.7303,-2.7355,-2.7356,-2.7356]},{"header":{"parameterUnit":"m.s-1","parameterCategory":1,"la1":30.2991,"la2":30.254,"lo1":-89.0895,"lo2":-89.0444,"dy":0.0017,"dx":0.0017,"nx":28,"ny":28,"refTime":"2025-09-01T03:00:00:Z","depth":0,"parameterNumber":3,"parameterNumberName":"V-component_of_WINDS"},"data":[0,0,0,0,0,0,0,0,0,0,0,0,0,0,0,0,0,0,0,0,0,0,0,0,0,0,0,0,0,0,0,0,0,0,0,0,0,0,0,0,0,0,0,0,0,0,0,0,0,0,0,0,0,0,0,0,0,0,0.9422,0.9422,0,0.942,0.942,0.942,0.9414,0.9414,0.9414,0.9413,0.941,0.941,0.9411,0,0,0,0,0,0,0,0,0,0,0,0,0,0.942,0.942,0.9422,0.9422,0.9422,0.942,0.942,0.942,0.9414,0.9414,0.9414,0.9413,0.941,0.941,0.9411,0,0,0,0,0,0,0,0,0,0,0,0,0,0.942,0.942,0.9422,0.9419,0.9419,0.942,0.942,0.942,0.9414,0.9414,0.9414,0.9413,0.941,0.941,0.9411,0.9415,0,0,0.9411,0.9411,0,0,0,0,0,0,0,0,0.942,0.942,0.942,0.9419,0.9419,0.9417,0.9418,0.9418,0.9414,0.9416,0.9413,0.9413,0.9413,0.9413,0.9413,0.9415,0.9415,0.9411,0.9411,0.9411,0.9411,0,0,0,0,0,0,0,0.942,0.942,0.9421,0.942,0.9419,0.9417,0.9417,0.9418,0.9415,0.9416,0.9415,0.9415,0.9413,0.9413,0.9412,0.9415,0.9411,0.9411,0.9411,0.9411,0.9419,0.9419,0,0,0,0,0,0,0.9421,0.942,0.9422,0.9421,0.9419,0.9417,0.9417,0.9418,0.9415,0.9415,0.9415,0.9415,0.9413,0.9412,0.9412,0.9417,0.9411,0.9411,0.9411,0.9419,0.9419,0.9419,0,0,0,0,0,0,0.9421,0.9421,0.9422,0.9421,0.9421,0.9418,0.9419,0.9418,0.9418,0.9415,0.9414,0.9416,0.9412,0.9412,0.9414,0.9416,0.9411,0.9411,0.9419,0.9419,0.9419,0.9425,0,0,0,0,0,0,0.9421,0.9421,0.9423,0.9421,0.9421,0.9424,0.9419,0.9418,0.9418,0.9418,0.9415,0.9415,0.9412,0.9414,0.9414,0.9416,0.9411,0.9418,0.9419,0.9419,0.9425,0.9426,0.9427,0,0,0,0,0,0.9421,0.9425,0.9423,0.9423,0.9423,0.9424,0.9424,0.9421,0.9418,0.942,0.9418,0.9415,0.9416,0.9414,0.9414,0.9417,0.9418,0.9419,0.9419,0.9425,0.9426,0.9427,0,0,0,0,0,0,0.9427,0.9424,0.9422,0.9426,0.9425,0.9423,0.9425,0.9422,0.9422,0.9422,0.9418,0.9417,0.9419,0.9418,0.9416,0.942,0.9417,0.9417,0.9421,0.9422,0.9423,0.9423,0.9411,0,0,0,0,0,0.9429,0.943,0.9428,0.9431,0.9431,0.9428,0.9428,0.9426,0.9425,0.9425,0.9423,0.9422,0.9422,0.9422,0.9422,0.9425,0.9424,0.9426,0.9427,0.9428,0.9428,0.9429,0.943,0.9421,0.9421,0.9421,0,0,0.9433,0.9431,0.9433,0.9432,0.9432,0.9432,0.9428,0.9429,0.943,0.9425,0.9426,0.9425,0.9423,0.9425,0.9426,0.9424,0.943,0.9428,0.9429,0.9429,0.9429,0.943,0.9431,0.9421,0.9421,0.9421,0,0,0.944,0.944,0.9442,0.9441,0.944,0.9438,0.9438,0.9436,0.9435,0.9437,0.9433,0.9433,0.9434,0.9432,0.9432,0.9438,0.9435,0.9438,0.9442,0.9443,0.9444,0.9444,0.9446,0.9446,0.9438,0.9438,0.9438,0,0.9445,0.9447,0.9444,0.9445,0.9445,0.944,0.9442,0.9442,0.944,0.944,0.9438,0.9438,0.9437,0.9438,0.944,0.944,0.944,0.9438,0.9444,0.9444,0.9445,0.9446,0.9447,0.9439,0.9439,0.9439,0.9439,0,0.9452,0.9453,0.9455,0.9454,0.9454,0.9456,0.9453,0.9453,0.9451,0.9449,0.945,0.9448,0.9447,0.9447,0.9445,0.9448,0.9447,0.9445,0.9441,0.9446,0.9447,0.9448,0.9439,0.9439,0.9439,0.9439,0,0,0.9464,0.946,0.9461,0.946,0.9458,0.9459,0.946,0.9459,0.9459,0.9458,0.9459,0.9459,0.9456,0.9456,0.9453,0.9454,0.9458,0.9451,0.9451,0.9452,0.9461,0.9462,0.9463,0.9456,0.9456,0.9456,0.9461,0,0.947,0.9472,0.9469,0.9472,0.9472,0.9468,0.9469,0.9468,0.9466,0.9465,0.9463,0.9463,0.946,0.9459,0.946,0.9458,0.946,0.9457,0.9456,0.9456,0.9456,0.9464,0.9466,0.947,0.9461,0.9461,0.9461,0,0.9478,0.9477,0.948,0.9477,0.9477,0.9478,0.9477,0.9477,0.9475,0.9473,0.9472,0.9469,0.947,0.9467,0.9467,0.9465,0.9464,0.9463,0.9463,0.9463,0.9459,0.9463,0.9471,0.9472,0.9462,0.9462,0.9462,0,0.9485,0.9485,0.9486,0.9486,0.9483,0.9483,0.9482,0.948,0.9479,0.9478,0.9478,0.9477,0.9476,0.9475,0.9471,0.9469,0.9472,0.9468,0.947,0.947,0.947,0.947,0.9478,0.9471,0.9471,0.9471,0.9471,0,0.9492,0.9494,0.9489,0.949,0.9491,0.9488,0.9489,0.9488,0.9486,0.9486,0.9482,0.9482,0.9478,0.9477,0.9474,0.9475,0.9474,0.9473,0.9472,0.9473,0.9473,0.9472,0.9471,0.9471,0.9471,0.9471,0.9471,0,0.95,0.9497,0.9498,0.9495,0.9495,0.9496,0.9493,0.9493,0.9491,0.9491,0.9491,0.9487,0.9486,0.9483,0.9481,0.9479,0.948,0.9479,0.9481,0.948,0.9482,0.9481,0.9489,0.9489,0.9482,0.9482,0.9482,0,0.9504,0.9506,0.9503,0.9502,0.9501,0.9501,0.9501,0.9497,0.9496,0.9494,0.9495,0.9493,0.9492,0.9491,0.9488,0.9486,0.9484,0.9487,0.9484,0.9485,0.9484,0.9484,0.9483,0.9488,0.9488,0.9488,0.9488,0,0.9512,0.9511,0.951,0.9509,0.9509,0.9508,0.9506,0.9506,0.9502,0.9502,0.9501,0.95,0.9498,0.9496,0.9494,0.9492,0.9489,0.9489,0.9489,0.949,0.9491,0.949,0.9482,0.9489,0.9489,0.9488,0.9488,0.9488,0.9518,0.9519,0.9517,0.9516,0.9515,0.9513,0.9513,0.9511,0.951,0.9509,0.9506,0.9505,0.9503,0.95,0.9498,0.9497,0.9495,0.9496,0.9496,0.9496,0.9496,0.9491,0.9497,0.9497,0.9497,0.9497,0.9497,0,0.9526,0.9524,0.9523,0.9522,0.9521,0.9518,0.9517,0.9516,0.9515,0.9513,0.9512,0.9511,0.9509,0.9506,0.9504,0.9504,0.9502,0.9503,0.9503,0.9503,0.9498,0.9498,0.9505,0.9505,0.9505,0.9505,0.9505,0.9505,0.9529,0.953,0.9528,0.9528,0.9526,0.9525,0.9524,0.9523,0.9521,0.952,0.9518,0.9516,0.9514,0.9511,0.951,0.9509,0.9508,0.9509,0.9508,0.9504,0.9503,0.9502,0.9502,0.9509,0.9509,0.9513,0.9513,0.9513]}]]